TimePST,TemperatureF,Dew PointF,Humidity,Sea Level PressureIn,VisibilityMPH,Wind Direction,Wind SpeedMPH,Gust SpeedMPH,PrecipitationIn,Events,Conditions,WindDirDegrees,DateUTC
12:52 AM,41.0,34.0,76,29.92,10.0,North,3.5,-,N/A,,Clear,350,2013-02-21 08:52:00
1:52 AM,39.9,34.0,79,29.93,10.0,NNE,3.5,-,N/A,,Clear,30,2013-02-21 09:52:00
2:52 AM,39.0,33.1,79,29.94,10.0,NNW,4.6,-,N/A,,Clear,340,2013-02-21 10:52:00
3:52 AM,39.0,33.1,79,29.94,10.0,Variable,4.6,-,N/A,,Clear,0,2013-02-21 11:52:00
4:52 AM,36.0,32.0,86,29.94,10.0,North,4.6,-,N/A,,Clear,10,2013-02-21 12:52:00
5:52 AM,37.0,33.1,86,29.95,10.0,North,3.5,-,N/A,,Clear,350,2013-02-21 13:52:00
6:52 AM,37.0,33.1,86,29.99,10.0,NNW,4.6,-,N/A,,Clear,340,2013-02-21 14:52:00
7:52 AM,45.0,35.1,68,30.00,10.0,Calm,Calm,-,N/A,,Clear,0,2013-02-21 15:52:00
8:52 AM,48.0,37.0,66,30.01,10.0,ESE,3.5,-,N/A,,Clear,110,2013-02-21 16:52:00
9:52 AM,51.1,35.1,54,30.01,10.0,Variable,4.6,-,N/A,,Clear,0,2013-02-21 17:52:00
10:52 AM,54.0,34.0,47,30.02,10.0,Calm,Calm,-,N/A,,Clear,0,2013-02-21 18:52:00
11:52 AM,59.0,33.1,38,30.00,10.0,Calm,Calm,-,N/A,,Clear,0,2013-02-21 19:52:00
12:52 PM,59.0,32.0,36,29.97,10.0,SE,5.8,-,N/A,,Clear,140,2013-02-21 20:52:00
1:52 PM,61.0,33.1,35,29.95,10.0,ENE,8.1,-,N/A,,Clear,70,2013-02-21 21:52:00
2:52 PM,60.1,28.9,31,29.95,10.0,ESE,3.5,-,N/A,,Scattered Clouds,120,2013-02-21 22:52:00
3:52 PM,61.0,30.0,31,29.94,10.0,NE,6.9,-,N/A,,Mostly Cloudy,50,2013-02-21 23:52:00
4:52 PM,57.9,30.0,35,29.96,10.0,North,15.0,-,N/A,,Overcast,360,2013-02-22 00:52:00
5:52 PM,57.0,26.1,30,29.99,10.0,North,5.8,-,0.00,,Mostly Cloudy,10,2013-02-22 01:52:00
6:52 PM,52.0,28.9,41,30.00,10.0,NNE,6.9,-,N/A,,Clear,20,2013-02-22 02:52:00
7:52 PM,48.9,28.0,44,30.02,10.0,NNW,4.6,-,N/A,,Clear,330,2013-02-22 03:52:00
8:52 PM,48.0,28.9,48,30.04,10.0,NNW,5.8,-,N/A,,Clear,330,2013-02-22 04:52:00
9:52 PM,46.9,28.9,50,30.05,10.0,NNW,4.6,-,N/A,,Clear,340,2013-02-22 05:52:00
10:52 PM,44.1,28.9,55,30.06,10.0,North,5.8,-,N/A,,Clear,350,2013-02-22 06:52:00
11:52 PM,44.1,28.0,53,30.06,10.0,SW,3.5,-,N/A,,Clear,230,2013-02-22 07:52:00